Weather Data

Pearl Creek Farm: 8878 N Farm Road 75, Walnut Grove MO 65770

<== Previous Day (Saturday 05 Sep 2015) | Next Day (Monday 07 Sep 2015) ==>

Summary Precipitation Data For Sunday 06 September 2015

ElementValueUnits
Precipitation0"
Notes(none)
SourcePearl Creek Farm

Summary Temperature Data For Sunday 06 September 2015

ElementValueUnits
High Temperature91 oF
Low Temperature73 oF
Average Temperature80 oF
High Humidity90 %
Low Humidity66 %
Average Humidity81 %
SourcePearl Creek Farm

Detail Temperature Data For Sunday 06 September 2015

Date / TimeTemp (F)RH (%)Dew Pt (F)Report Date / TimeSource
2015-09-06 00:00:00 75 88 71.0 2015-09-07 20:25:01 Pearl Creek Farm
2015-09-06 00:30:00 74 88 70.2 2015-09-07 20:25:01 Pearl Creek Farm
2015-09-06 01:00:00 74 88 70.2 2015-09-07 20:25:01 Pearl Creek Farm
2015-09-06 01:30:00 75 87 70.9 2015-09-07 20:25:01 Pearl Creek Farm
2015-09-06 02:00:00 75 87 70.7 2015-09-07 20:25:01 Pearl Creek Farm
2015-09-06 02:30:00 75 87 70.7 2015-09-07 20:25:01 Pearl Creek Farm
2015-09-06 03:00:00 75 87 70.7 2015-09-07 20:25:01 Pearl Creek Farm
2015-09-06 03:30:00 75 87 70.7 2015-09-07 20:25:01 Pearl Creek Farm
2015-09-06 04:00:00 74 87 69.9 2015-09-07 20:25:01 Pearl Creek Farm
2015-09-06 04:30:00 74 87 69.9 2015-09-07 20:25:01 Pearl Creek Farm
2015-09-06 05:00:00 73 89 69.6 2015-09-07 20:25:01 Pearl Creek Farm
2015-09-06 05:30:00 73 89 69.6 2015-09-07 20:25:01 Pearl Creek Farm
2015-09-06 06:00:00 73 89 69.6 2015-09-07 20:25:01 Pearl Creek Farm
2015-09-06 06:30:00 73 89 69.6 2015-09-07 20:25:01 Pearl Creek Farm
2015-09-06 07:00:00 73 90 69.9 2015-09-07 20:25:01 Pearl Creek Farm
2015-09-06 07:30:00 73 90 69.9 2015-09-07 20:25:01 Pearl Creek Farm
2015-09-06 08:00:00 74 90 70.9 2015-09-07 20:25:01 Pearl Creek Farm
2015-09-06 08:30:00 75 90 71.7 2015-09-07 20:25:01 Pearl Creek Farm
2015-09-06 09:00:00 77 87 72.7 2015-09-07 20:25:01 Pearl Creek Farm
2015-09-06 09:30:00 79 84 73.6 2015-09-07 20:25:01 Pearl Creek Farm
2015-09-06 10:00:00 81 81 74.4 2015-09-07 20:25:01 Pearl Creek Farm
2015-09-06 10:30:00 82 80 75.0 2015-09-07 20:25:01 Pearl Creek Farm
2015-09-06 11:00:00 84 77 75.8 2015-09-07 20:25:01 Pearl Creek Farm
2015-09-06 11:30:00 85 75 76.0 2015-09-07 20:25:01 Pearl Creek Farm
2015-09-06 12:00:00 86 75 76.9 2015-09-07 20:25:01 Pearl Creek Farm
2015-09-06 12:30:00 88 72 77.6 2015-09-07 20:25:01 Pearl Creek Farm
2015-09-06 13:00:00 88 72 77.6 2015-09-07 20:25:01 Pearl Creek Farm
2015-09-06 13:30:00 88 71 77.2 2015-09-07 20:25:01 Pearl Creek Farm
2015-09-06 14:00:00 90 67 77.5 2015-09-07 20:25:01 Pearl Creek Farm
2015-09-06 14:30:00 91 66 77.8 2015-09-07 20:25:01 Pearl Creek Farm
2015-09-06 15:00:00 91 68 78.7 2015-09-07 20:25:01 Pearl Creek Farm
2015-09-06 15:30:00 90 67 77.3 2015-09-07 20:25:01 Pearl Creek Farm
2015-09-06 16:00:00 90 68 78.0 2015-09-07 20:25:01 Pearl Creek Farm
2015-09-06 16:30:00 89 72 78.6 2015-09-07 20:25:01 Pearl Creek Farm
2015-09-06 17:00:00 89 70 77.7 2015-09-07 20:25:01 Pearl Creek Farm
2015-09-06 17:30:00 88 69 76.5 2015-09-07 20:25:01 Pearl Creek Farm
2015-09-06 18:00:00 87 70 76.0 2015-09-07 20:25:01 Pearl Creek Farm
2015-09-06 18:30:00 86 75 77.1 2015-09-07 20:25:01 Pearl Creek Farm
2015-09-06 19:00:00 85 77 77.0 2015-09-07 20:25:01 Pearl Creek Farm
2015-09-06 19:30:00 84 79 76.8 2015-09-07 20:25:01 Pearl Creek Farm
2015-09-06 20:00:00 82 81 75.4 2015-09-07 20:25:01 Pearl Creek Farm
2015-09-06 20:30:00 80 82 74.0 2015-09-07 20:25:01 Pearl Creek Farm
2015-09-06 21:00:00 79 83 73.2 2015-09-07 20:25:01 Pearl Creek Farm
2015-09-06 21:30:00 78 85 72.9 2015-09-07 20:25:01 Pearl Creek Farm
2015-09-06 22:00:00 77 86 72.3 2015-09-07 20:25:01 Pearl Creek Farm
2015-09-06 22:30:00 77 85 72.1 2015-09-07 20:25:01 Pearl Creek Farm
2015-09-06 23:00:00 76 85 71.2 2015-09-07 20:25:01 Pearl Creek Farm
2015-09-06 23:30:00 77 83 71.3 2015-09-07 20:25:01 Pearl Creek Farm

A total of 48 rows are displayed.